Linz Airport, Austria

6:27 AM CEST on May 25, 2017 (GMT +0200)
Linz

Weather History for LOWL - October, 2012

Change the Weather History Date:

Wednesday, October 24, 2012

  Actual Average Record
Temperature  
Mean Temperature 48 °F -  
Max Temperature 49 °F 45 °F 65 °F (2013)
Min Temperature 47 °F 35 °F 26 °F (2003)
Degree Days  
Heating Degree Days 17    
Moisture  
Dew Point 44 °F    
Average Humidity 83    
Maximum Humidity 93    
Minimum Humidity 69    
Precipitation  
Precipitation 0.00 in - - ()
Sea Level Pressure  
Sea Level Pressure 30.14 in    
Wind  
Wind Speed 4 mph ()    
Max Wind Speed 7 mph    
Max Gust Speed -    
Visibility 4.9 miles    
Events      
Averages and records for this station are not official NWS values.
T = Trace of Precipitation, MM = Missing Value Source: Averaged Metar Reports

Daily Weather History Graph

Daily Weather History Graph

Search for Another Location

Airport or City:

Trip Planner

Search our weather history database for the weather conditions in past years. The results will help you decide how hot, cold, wet, or windy it might be!

Date:

Astronomy

Oct. 24, 2012 Rise Set
Actual Time 7:36 AM CEST 5:57 PM CEST
Civil Twilight 7:04 AM CEST 6:29 PM CEST
Nautical Twilight 6:28 AM CEST 7:05 PM CEST
Astronomical Twilight 5:52 AM CEST 7:41 PM CEST
Moon 3:24 PM CEST (10/24) 1:50 AM CEST (10/24)
Length of Visible Light 11h 24m
Length of Day
10h 20m
Waxing Gibbous, 73% of the Moon is Illuminated
Oct 24
Waxing Gibbous
Oct 29
Full
Nov 7
Last Quarter
Nov 13
New
Nov 20
First Quarter

Hourly Weather History & Observations

Time (CEST) Temp. Windchill Dew Point Humidity Pressure Visibility Wind Dir Wind Speed Gust Speed Precip Events Conditions
12:20 AM 48.2 °F - 44.6 °F 87% 30.21 in 5.6 mi East 5.8 mph - N/A   Mostly Cloudy
12:50 AM 48.2 °F - 44.6 °F 87% 30.21 in 6.2 mi East 6.9 mph - N/A   Overcast
1:20 AM 48.2 °F - 44.6 °F 87% 30.18 in 5.6 mi East 5.8 mph - N/A   Overcast
1:50 AM 48.2 °F - 44.6 °F 87% 30.18 in 5.0 mi East 5.8 mph - N/A   Overcast
2:00 AM 48 °F - 44 °F 82% 30.22 in 5 mi East 6.7 mph - -  
2:20 AM 48.2 °F - 44.6 °F 87% 30.18 in 5.0 mi ESE 5.8 mph - N/A   Mostly Cloudy
2:50 AM 48.2 °F - 44.6 °F 87% 30.18 in 5.0 mi East 5.8 mph - N/A   Overcast
3:20 AM 48.2 °F - 44.6 °F 87% 30.18 in 4.3 mi ESE 5.8 mph - N/A   Mostly Cloudy
3:50 AM 48.2 °F - 44.6 °F 87% 30.18 in 4.3 mi ESE 5.8 mph - N/A   Mostly Cloudy
4:20 AM 48.2 °F - 44.6 °F 87% 30.15 in 4.3 mi ESE 5.8 mph - N/A   Mostly Cloudy
4:50 AM 48.2 °F - 44.6 °F 87% 30.15 in 4.3 mi ESE 4.6 mph - N/A   Mostly Cloudy
5:00 AM 47 °F - 44 °F 86% 30.19 in 4 mi ESE 4.5 mph - -   Overcast
5:20 AM 48.2 °F - 44.6 °F 87% 30.15 in 4.3 mi East 4.6 mph - N/A   Mostly Cloudy
5:50 AM 46.4 °F 44.3 °F 44.6 °F 93% 30.15 in 3.7 mi SE 4.6 mph - N/A   Mostly Cloudy
6:20 AM 48.2 °F - 44.6 °F 87% 30.15 in 4.3 mi SE 4.6 mph - N/A   Mostly Cloudy
6:50 AM 48.2 °F - 44.6 °F 87% 30.15 in 4.3 mi ESE 3.5 mph - N/A   Mostly Cloudy
7:20 AM 48.2 °F - 42.8 °F 82% 30.15 in 5.0 mi ESE 4.6 mph - N/A   Overcast
7:50 AM 48.2 °F - 42.8 °F 82% 30.15 in 3.7 mi SE 3.5 mph - N/A   Overcast
8:00 AM 47 °F - 43 °F 82% 30.19 in 4 mi SE 4.5 mph - -   Overcast
8:20 AM 48.2 °F - 42.8 °F 82% 30.15 in 4.3 mi ESE 3.5 mph - N/A   Overcast
8:50 AM 48.2 °F - 44.6 °F 87% 30.18 in 3.7 mi ESE 4.6 mph - N/A   Overcast
9:20 AM 48.2 °F - 44.6 °F 87% 30.18 in 4.3 mi ESE 3.5 mph - N/A   Overcast
9:50 AM 48.2 °F - 42.8 °F 82% 30.15 in 4.3 mi East 2.3 mph - N/A   Overcast
10:20 AM 48.2 °F - 42.8 °F 82% 30.15 in 5.0 mi ESE 4.6 mph - N/A   Mostly Cloudy
10:50 AM 48.2 °F - 44.6 °F 87% 30.15 in 5.0 mi ESE 3.5 mph - N/A   Overcast
11:00 AM 48 °F - 44 °F 80% 30.19 in 5 mi ESE 4.5 mph - -   Overcast
11:20 AM 48.2 °F - 42.8 °F 82% 30.15 in 5.6 mi ESE 4.6 mph - N/A   Mostly Cloudy
11:50 AM 48.2 °F - 42.8 °F 82% 30.15 in 5.6 mi ESE 4.6 mph - N/A   Mostly Cloudy
12:20 PM 48.2 °F - 42.8 °F 82% 30.15 in 5.6 mi ESE 3.5 mph - N/A   Overcast
12:50 PM 48.2 °F - 42.8 °F 82% 30.15 in 5.6 mi SE 3.5 mph - N/A   Overcast
1:20 PM 48.2 °F - 42.8 °F 82% 30.12 in 5.6 mi SE 3.5 mph - N/A   Overcast
1:50 PM 48.2 °F - 42.8 °F 82% 30.12 in 5.6 mi Variable 1.2 mph - N/A   Overcast
2:00 PM 49 °F - 42 °F 69% 30.15 in 6 mi 2.2 mph - -   Overcast
2:20 PM 50.0 °F - 42.8 °F 76% 30.12 in 5.6 mi Variable 1.2 mph - N/A   Overcast
2:50 PM 50.0 °F - 42.8 °F 76% 30.12 in 5.6 mi SSE 3.5 mph - N/A   Overcast
3:20 PM 50.0 °F - 42.8 °F 76% 30.09 in 5.6 mi Variable 2.3 mph - N/A   Overcast
3:50 PM 50.0 °F - 42.8 °F 76% 30.09 in 5.6 mi SSW 3.5 mph - N/A   Overcast
4:20 PM 50.0 °F - 42.8 °F 76% 30.09 in 5.6 mi Variable 2.3 mph - N/A   Overcast
4:50 PM 48.2 °F - 42.8 °F 82% 30.09 in 5.0 mi SE 3.5 mph - N/A   Mostly Cloudy
5:00 PM 49 °F - 43 °F 74% 30.11 in 5 mi SE 4.5 mph - -   Scattered Clouds
5:20 PM 48.2 °F - 42.8 °F 82% 30.09 in 5.0 mi South 3.5 mph - N/A   Mostly Cloudy
5:50 PM 48.2 °F - 42.8 °F 82% 30.09 in 5.0 mi Variable 2.3 mph - N/A   Overcast
6:20 PM 48.2 °F - 42.8 °F 82% 30.09 in 5.0 mi Variable 2.3 mph - N/A   Overcast
6:50 PM 48.2 °F - 42.8 °F 82% 30.09 in 5.0 mi SSW 3.5 mph - N/A   Overcast
7:20 PM 48.2 °F - 42.8 °F 82% 30.09 in 5.0 mi SSW 4.6 mph - N/A   Overcast
7:50 PM 48.2 °F - 42.8 °F 82% 30.09 in 5.0 mi SSW 3.5 mph - N/A   Overcast
8:00 PM 47 °F - 43 °F 82% 30.11 in 5 mi SSW 4.5 mph - -   Overcast
8:20 PM 48.2 °F - 42.8 °F 82% 30.09 in 5.0 mi South 3.5 mph - N/A   Overcast
8:50 PM 48.2 °F - 42.8 °F 82% 30.09 in 5.0 mi SW 4.6 mph - N/A   Overcast
9:20 PM 48.2 °F - 42.8 °F 82% 30.09 in 4.3 mi Variable 2.3 mph - N/A   Overcast
9:50 PM 48.2 °F - 44.6 °F 87% 30.09 in 4.3 mi Variable 2.3 mph - N/A   Mostly Cloudy
10:20 PM 48.2 °F - 42.8 °F 82% 30.09 in 4.3 mi WSW 2.3 mph - N/A   Mostly Cloudy
10:50 PM 48.2 °F - 44.6 °F 87% 30.09 in 4.3 mi West 3.5 mph - N/A   Mostly Cloudy
11:00 PM 47 °F - 44 °F 84% 30.12 in 4 mi West 4.5 mph - -   Overcast
11:20 PM 48.2 °F - 44.6 °F 87% 30.09 in 4.3 mi West 3.5 mph - N/A   Mostly Cloudy
11:50 PM 48.2 °F - 42.8 °F 82% 30.09 in 4.3 mi WSW 3.5 mph - N/A   Mostly Cloudy